Welcome to the New NWS' Forecast!
Most changes are behind the scenes, but click here for differences you might notice.

Regional Weather Roundup (RWR)

Issued by National Weather Service (NWS)

                            
000
ASUS46 KSEW 212010
RWRWA 

WASHINGTON REGIONAL WEATHER ROUNDUP
NATIONAL WEATHER SERVICE SEATTLE WA
100 PM PDT FRI SEP 21 2018

NOTE:"FAIR" INDICATES FEW OR NO CLOUDS BELOW 12,000 FEET WITH NO 
SIGNIFICANT WEATHER AND/OR OBSTRUCTIONS TO VISIBILITY.

WAZ507-509-555>559-212100-
SEATTLE, TACOMA, EVERETT, AND VICINITY
  
CITY           SKY/WX    TMP DP  RH WIND       PRES   REMARKS
EVERETT        CLOUDY    66  51  58 SE13      29.93F                  
BOEING FIELD   PTSUNNY   69  51  52 S9        29.93F                  
RENTON         PTSUNNY   72  52  49 S7        29.93F                  
SEATAC AIRPORT PTSUNNY   68  49  50 S13       29.94F                  
JBLM-MCCHORD   PTSUNNY   71  54  55 SW7       29.93F                  
PUYALLUP       FAIR      72  52  49 W5        29.94F                  
BREMERTON      PTSUNNY   68  56  65 SW13G18   29.93F                  
JBLM-FT LEWIS  NOT AVBL                                               
TACOMA NARROWS MOSUNNY   65  51  60 S5        29.95F                  
$$
 
WAZ001-503-506-510-514-515-212100-
NORTH INTERIOR
  
CITY           SKY/WX    TMP DP  RH WIND       PRES   REMARKS
BELLINGHAM     CLOUDY    60  55  83 NE3       29.90F                  
FRIDAY HARBOR  CLOUDY    64  53  67 SE6       29.91F                  
EASTSOUND      CLOUDY    63  54  72 S9        29.89F                  
PORT ANGELES   CLOUDY    60  52  74 VRB5      29.90F                  
EDIZ HOOK      FAIR      55  52  90 NW3       29.90F                  
PORT TOWNSEND  CLOUDY    64  55  72 SW6       29.89F                  
NAS WHIDBEY    CLOUDY    68  53  58 S13       29.94F                  
ARLINGTON      CLOUDY    67  53  61 SE12      29.92F                  
BURLINGTON     PTSUNNY   66  54  63 SE8       29.91F                  
$$
 
WAZ020-022-039-040-504-511-512-212100-
SOUTHWEST INTERIOR
  
CITY           SKY/WX    TMP DP  RH WIND       PRES   REMARKS
SHELTON        PTSUNNY   68  54  60 W9        29.91F                  
OLYMPIA        MOSUNNY   69  50  50 VRB6      29.93F                  
CHEHALIS       FAIR      72  54  53 VRB5      29.94F                  
KELSO          NOT AVBL                                               
VANCOUVER      PTSUNNY   68  51  54 CALM      29.95F                  
SCAPPOOSE, OR  PTSUNNY   67  52  58 E3        29.95F                  
PORTLAND, OR   PTSUNNY   69  51  52 N5        29.96F                  
$$
 
WAZ021-516-517-212100-
WASHINGTON COAST
  
CITY           SKY/WX    TMP DP  RH WIND       PRES   REMARKS
FORKS          CLOUDY    61  58  90 VRB6G18   29.89F                  
HOQUIAM        CLOUDY    65  58  78 S5        29.94S                  
ASTORIA, OR    CLOUDY    64  55  72 NW5       29.95F                  
$$
 
WAZ019-023-024-040-567>569-212100-
CASCADE MOUNTAINS AND COLUMBIA GORGE
  
CITY           SKY/WX    TMP DP  RH WIND       PRES   REMARKS
STAMPEDE PASS  CLOUDY    59  46  62 CALM      30.01S                  
TROUTDALE, OR  PTSUNNY   68  51  54 CALM      29.96F                  
HOOD RIVER, OR CLOUDY    68  46  45 CALM      29.94F                  
THE DALLES, OR PTSUNNY   72  46  39 CALM      29.92F                  
$$

WAZ026-027-041>044-520-521-212100-
EAST SLOPES
  
CITY           SKY/WX    TMP DP  RH WIND       PRES   REMARKS
OMAK           PTSUNNY   65  47  52 CALM      29.95F                  
WENATCHEE      CLOUDY    65  46  50 E8        29.93F                  
ELLENSBURG     CLOUDY    68  47  46 SE3       29.95F                  
YAKIMA         CLOUDY    68  44  42 E5        29.94F                  
SUNNYSIDE ARPT MOCLDY    70  49  47 SE3       29.94F                  
YAKIMA TC      NOT AVBL                                               
$$

WAZ028-034-035-212100-
COLUMBIA BASIN
  
CITY           SKY/WX    TMP DP  RH WIND       PRES   REMARKS
EPHRATA        CLOUDY    69  43  38 S9        29.94F                  
MOSES LAKE     PTSUNNY   70  41  34 VRB5      29.95F                  
PASCO          MOSUNNY   76  44  32 MISG      29.93F                  
RICHLAND ARPT  PTCLDY    77  46  33 SE3       29.92F                  
HERMISTON, OR  SUNNY     76  43  30 N5        29.92F                  
$$

WAZ036>038-212100-
NORTHEAST WASHINGTON
  
CITY           SKY/WX    TMP DP  RH WIND       PRES   REMARKS
SPOKANE GEIGER CLOUDY    69  39  33 SW13      30.00F                  
SPOKANE FELTS  PTSUNNY   72  37  28 CALM      30.00F                  
FAIRCHILD AFB  NOT AVBL                                               
COEURDALENE,ID MOSUNNY   68  38  33 N5        30.02F                  
DEER PARK        N/A     68  38  33 SE5       30.00F                  
$$

WAZ029>033-212100-
SOUTHEAST WASHINGTON
  
CITY           SKY/WX    TMP DP  RH WIND       PRES   REMARKS
PULLMAN        PTSUNNY   72  34  24 S7        30.03F                  
LEWISTON, ID   PTSUNNY   75  38  26 N8        29.97F                  
WALLA WALLA    SUNNY     77  33  20 W6        29.95F                  
PENDLETON, OR  SUNNY     76  37  24 NW5       29.94F                  
$$